Regional Weather Roundup
Issued by NWS

Home | Current Version | Previous Version | Text Only | Print | Product List | Glossary On
Versions: 1 2 3 4 5 6 7 8 9 10 11 12 13 14 15 16 17 18 19 20 21 22 23 24 25 26 27 28 29 30 31 32 33 34 35 36 37 38 39 40 41 42 43 44 45 46 47 48 49 50
000
ASUS46 KSEW 012310
RWRWA

WASHINGTON REGIONAL WEATHER ROUNDUP
NATIONAL WEATHER SERVICE SEATTLE WA
400 PM PDT SAT AUG 01 2015

NOTE:"FAIR" INDICATES FEW OR NO CLOUDS BELOW 12,000 FEET WITH NO
SIGNIFICANT WEATHER AND/OR OBSTRUCTIONS TO VISIBILITY.

WAZ505-507>509-020000-
SEATTLE, TACOMA, EVERETT, AND VICINITY

CITY           SKY/WX    TMP DP  RH WIND       PRES   REMARKS
EVERETT        SUNNY     85  49  28 NW8       29.97F
BOEING FIELD   SUNNY     90  44  20 NW9       29.92F
RENTON         SUNNY     89  50  26 NW12      29.91F
SEATAC AIRPORT MOSUNNY   91  48  22 N10       29.95F
JBLM-MCCHORD   SUNNY     90  41  18 NE8       29.93F
PUYALLUP       FAIR      91  46  21 VRB5      29.95F
BREMERTON      SUNNY     90  48  24 NE9G16    29.97F
JBLM-FT LEWIS  SUNNY     91  44  19 NW9       29.93F
TACOMA NARROWS SUNNY     87  46  24 N12       29.94F
$$

WAZ001-503-506-510-514-515-020000-
NORTH INTERIOR

CITY           SKY/WX    TMP DP  RH WIND       PRES   REMARKS
BELLINGHAM     SUNNY     83  54  36 CALM      29.95F
FRIDAY HARBOR  SUNNY     82  52  35 S5        29.96F
EASTSOUND      SUNNY     73  57  56 N5        29.95F
PORT ANGELES   SUNNY     74  52  46 N6        29.99F
PORT TOWNSEND  FAIR      84  50  30 NW7       29.95F
NAS WHIDBEY    MOSUNNY   66  53  63 W7        30.00F
ARLINGTON      SUNNY     90  54  29 W10       29.94F
BURLINGTON     SUNNY     84  52  32 VRB7G13   29.94F
$$

WAZ020-022-039-040-504-511-512-020000-
SOUTHWEST INTERIOR

CITY           SKY/WX    TMP DP  RH WIND       PRES   REMARKS
SHELTON        SUNNY     95  42  16 SE10      29.90F HX  91
OLYMPIA        SUNNY     92  42  17 N9        29.93F
CHEHALIS       FAIR      95  46  18 VRB6G13   29.92F HX  91
KELSO          SUNNY     97  52  21 NW7       29.91F HX  94
VANCOUVER      SUNNY     97  44  16 NW15      29.85F HX  93
SCAPPOOSE, OR  SUNNY     98  42  14 N14       29.85F HX  94
PORTLAND, OR   MOSUNNY   97  48  18 NW8G20    29.85F HX  93
$$

WAZ021-516-517-020000-
WASHINGTON COAST

CITY           SKY/WX    TMP DP  RH WIND       PRES   REMARKS
FORKS          MOSUNNY   77  52  41 NW12      29.98F
HOQUIAM        SUNNY     72  58  61 SW16      29.97F
ASTORIA, OR    SUNNY     74  57  55 NW13G22   29.95F
$$

WAZ019-023-024-040-518-519-020000-
CASCADE MOUNTAINS AND COLUMBIA GORGE

CITY           SKY/WX    TMP DP  RH WIND       PRES   REMARKS
TROUTDALE, OR  SUNNY     97  48  18 VRB6      29.83F HX  93
THE DALLES, OR MOSUNNY  108  26   6 NW10      29.77F HX 100
$$

WAZ026-027-041>044-520-521-020000-
EAST SLOPES

CITY           SKY/WX    TMP DP  RH WIND       PRES   REMARKS
OMAK           MOSUNNY   98  23   7 S9        29.84F HX  91
WENATCHEE      SUNNY    104  21   5 CALM      29.81F HX  96
ELLENSBURG     SUNNY    104  27   6 NW20G30   29.87F HX  97
YAKIMA         SUNNY    104  39  10 S8        29.82F HX  98
$$

WAZ028-034-035-020000-
COLUMBIA BASIN

CITY           SKY/WX    TMP DP  RH WIND       PRES   REMARKS
EPHRATA        MOSUNNY  102  31   8 S9        29.83F HX  95
MOSES LAKE     SUNNY    102  29   7 SW10      29.84F HX  95
PASCO          SUNNY    103  41  12 VRB6      29.79F HX  98
HERMISTON, OR  MOSUNNY  102  33   9 NW3       29.80F HX  96
$$

WAZ036>038-020000-
NORTHEAST WASHINGTON

CITY           SKY/WX    TMP DP  RH WIND       PRES   REMARKS
SPOKANE GEIGER PTSUNNY   98  20   6 W17       29.90F HX  91
SPOKANE FELTS  SUNNY     99  28   8 W10G20    29.87F HX  92
FAIRCHILD AFB  SUNNY     98  13   4 SW14G21   29.91F HX  90
COEURDALENE,ID SUNNY     97  34  11 SW9       29.89F HX  91
DEER PARK      SUNNY     99  20   6 SW14      29.89F HX  92
$$

WAZ029>033-020000-
SOUTHEAST WASHINGTON

CITY           SKY/WX    TMP DP  RH WIND       PRES   REMARKS
PULLMAN        SUNNY     96  30   9 W8G17     29.95F HX  90
LEWISTON, ID   SUNNY    106  31   7 NW14G21   29.83F HX  99
WALLA WALLA    SUNNY    102  29   7 VRB5      29.84F HX  95
PENDLETON, OR  SUNNY    101  22   6 NW9       29.86F HX  94
$$



USA.gov is the U.S. government's official web portal to all federal, state and local government web resources and services.